Time,TemperatureF,DewpointF,PressureIn,WindDirection,WindDirectionDegrees,WindSpeedMPH,WindSpeedGustMPH,Humidity,HourlyPrecipIn,Conditions,Clouds,dailyrainin,SoftwareType,DateUTC
2013-05-30 00:00:00,55.0,-99.9,-100.00,South,184,6.0,-999.0,-999,-99.99,,,-99.99,,2013-05-30 07:00:00,
2013-05-30 00:52:00,55.0,-99.9,-100.00,South,184,6.0,-999.0,-999,-99.99,,,-99.99,,2013-05-30 07:52:00,
2013-05-30 01:00:00,54.0,-99.9,-100.00,South,177,7.0,-999.0,-999,-99.99,,,-99.99,,2013-05-30 08:00:00,
2013-05-30 01:53:00,54.0,-99.9,-100.00,South,177,7.0,-999.0,-999,-99.99,,,-99.99,,2013-05-30 08:53:00,
2013-05-30 02:00:00,53.0,-99.9,-100.00,South,187,8.0,-999.0,-999,-99.99,,,-99.99,,2013-05-30 09:00:00,
2013-05-30 02:53:00,53.0,-99.9,-100.00,South,187,8.0,-999.0,-999,-99.99,,,-99.99,,2013-05-30 09:53:00,
2013-05-30 03:00:00,52.0,-99.9,-100.00,South,186,8.0,-999.0,-999,-99.99,,,-99.99,,2013-05-30 10:00:00,
2013-05-30 03:52:00,52.0,-99.9,-100.00,South,186,8.0,-999.0,-999,-99.99,,,-99.99,,2013-05-30 10:52:00,
2013-05-30 04:00:00,52.0,-99.9,-100.00,South,180,9.0,-999.0,-999,-99.99,,,-99.99,,2013-05-30 11:00:00,
2013-05-30 04:52:00,52.0,-99.9,-100.00,South,180,9.0,-999.0,-999,-99.99,,,-99.99,,2013-05-30 11:52:00,
2013-05-30 05:00:00,51.0,-99.9,-100.00,South,175,8.0,-999.0,-999,-99.99,,,-99.99,,2013-05-30 12:00:00,
2013-05-30 05:52:00,51.0,-99.9,-100.00,South,175,8.0,-999.0,-999,-99.99,,,-99.99,,2013-05-30 12:52:00,
2013-05-30 06:00:00,52.0,-99.9,-100.00,South,174,9.0,-999.0,-999,-99.99,,,-99.99,,2013-05-30 13:00:00,
2013-05-30 06:52:00,52.0,-99.9,-100.00,South,174,9.0,-999.0,-999,-99.99,,,-99.99,,2013-05-30 13:52:00,
2013-05-30 07:00:00,54.0,-99.9,-100.00,South,177,8.0,-999.0,-999,-99.99,,,-99.99,,2013-05-30 14:00:00,
2013-05-30 07:52:00,54.0,-99.9,-100.00,South,177,8.0,-999.0,-999,-99.99,,,-99.99,,2013-05-30 14:52:00,
2013-05-30 08:00:00,54.0,-99.9,-100.00,South,174,9.0,-999.0,-999,-99.99,,,-99.99,,2013-05-30 15:00:00,
2013-05-30 08:53:00,54.0,-99.9,-100.00,South,174,9.0,-999.0,-999,-99.99,,,-99.99,,2013-05-30 15:53:00,
2013-05-30 09:00:00,55.0,-99.9,-100.00,South,176,8.0,-999.0,-999,-99.99,,,-99.99,,2013-05-30 16:00:00,
2013-05-30 09:53:00,55.0,-99.9,-100.00,South,176,8.0,-999.0,-999,-99.99,,,-99.99,,2013-05-30 16:53:00,
2013-05-30 10:00:00,57.0,-99.9,-100.00,South,181,9.0,-999.0,-999,-99.99,,,-99.99,,2013-05-30 17:00:00,
2013-05-30 10:52:00,57.0,-99.9,-100.00,South,181,9.0,-999.0,-999,-99.99,,,-99.99,,2013-05-30 17:52:00,
2013-05-30 11:00:00,60.0,-99.9,-100.00,South,182,9.0,-999.0,-999,-99.99,,,-99.99,,2013-05-30 18:00:00,
2013-05-30 11:52:00,60.0,-99.9,-100.00,South,182,9.0,-999.0,-999,-99.99,,,-99.99,,2013-05-30 18:52:00,
2013-05-30 12:00:00,62.0,-99.9,-100.00,South,177,9.0,-999.0,-999,-99.99,,,-99.99,,2013-05-30 19:00:00,
2013-05-30 12:53:00,62.0,-99.9,-100.00,South,177,9.0,-999.0,-999,-99.99,,,-99.99,,2013-05-30 19:53:00,
2013-05-30 13:00:00,63.0,-99.9,-100.00,SSW,199,8.0,-999.0,-999,-99.99,,,-99.99,,2013-05-30 20:00:00,
2013-05-30 13:52:00,63.0,-99.9,-100.00,SSW,199,8.0,-999.0,-999,-99.99,,,-99.99,,2013-05-30 20:52:00,
2013-05-30 14:00:00,62.0,-99.9,-100.00,SW,225,8.0,-999.0,-999,-99.99,,,-99.99,,2013-05-30 21:00:00,
2013-05-30 14:54:00,62.0,-99.9,-100.00,SW,225,8.0,-999.0,-999,-99.99,,,-99.99,,2013-05-30 21:54:00,
2013-05-30 15:00:00,64.0,-99.9,-100.00,SSW,192,8.0,-999.0,-999,-99.99,,,-99.99,,2013-05-30 22:00:00,
2013-05-30 15:52:00,64.0,-99.9,-100.00,SSW,192,8.0,-999.0,-999,-99.99,,,-99.99,,2013-05-30 22:52:00,
2013-05-30 16:00:00,63.0,-99.9,-100.00,SSW,212,8.0,-999.0,-999,-99.99,,,-99.99,,2013-05-30 23:00:00,
2013-05-30 16:52:00,63.0,-99.9,-100.00,SSW,212,8.0,-999.0,-999,-99.99,,,-99.99,,2013-05-30 23:52:00,
2013-05-30 17:00:00,63.0,-99.9,-100.00,SSW,202,8.0,-999.0,-999,-99.99,,,-99.99,,2013-05-31 00:00:00,
2013-05-30 17:52:00,63.0,-99.9,-100.00,SSW,202,8.0,-999.0,-999,-99.99,,,-99.99,,2013-05-31 00:52:00,
2013-05-30 18:00:00,61.0,-99.9,-100.00,South,174,8.0,-999.0,-999,-99.99,,,-99.99,,2013-05-31 01:00:00,
2013-05-30 18:52:00,61.0,-99.9,-100.00,South,174,8.0,-999.0,-999,-99.99,,,-99.99,,2013-05-31 01:52:00,
2013-05-30 19:00:00,60.0,-99.9,-100.00,South,176,8.0,-999.0,-999,-99.99,,,-99.99,,2013-05-31 02:00:00,
2013-05-30 19:52:00,60.0,-99.9,-100.00,South,176,8.0,-999.0,-999,-99.99,,,-99.99,,2013-05-31 02:52:00,
2013-05-30 20:00:00,59.0,-99.9,-100.00,South,186,7.0,-999.0,-999,-99.99,,,-99.99,,2013-05-31 03:00:00,
2013-05-30 20:54:00,59.0,-99.9,-100.00,South,186,7.0,-999.0,-999,-99.99,,,-99.99,,2013-05-31 03:54:00,
2013-05-30 21:00:00,58.0,-99.9,-100.00,South,178,7.0,-999.0,-999,-99.99,,,-99.99,,2013-05-31 04:00:00,
2013-05-30 21:53:00,58.0,-99.9,-100.00,South,178,7.0,-999.0,-999,-99.99,,,-99.99,,2013-05-31 04:53:00,
2013-05-30 22:00:00,57.0,-99.9,-100.00,South,174,7.0,-999.0,-999,-99.99,,,-99.99,,2013-05-31 05:00:00,
2013-05-30 22:52:00,57.0,-99.9,-100.00,South,174,7.0,-999.0,-999,-99.99,,,-99.99,,2013-05-31 05:52:00,
2013-05-30 23:00:00,56.0,-99.9,-100.00,South,184,5.0,-999.0,-999,-99.99,,,-99.99,,2013-05-31 06:00:00,
2013-05-30 23:52:00,56.0,-99.9,-100.00,South,184,5.0,-999.0,-999,-99.99,,,-99.99,,2013-05-31 06:52:00,